Regional Weather Roundup
Issued by NWS State College, PA

Home | Current Version | Previous Version | Graphics & Text | Print | Product List | Glossary Off
Versions: 1 2 3 4 5 6 7 8 9 10 11 12 13 14 15 16 17 18 19 20 21 22 23 24 25 26 27 28 29 30 31 32 33 34 35 36 37 38 39 40 41 42 43 44 45 46 47 48 49 50

000
ASUS41 KCTP 261503
RWRCTP

REGIONAL WEATHER ROUNDUP
NATIONAL WEATHER SERVICE STATE COLLEGE PA
1100 AM EDT SAT MAY 26 2018

Note: "fair" indicates few or no clouds below 12,000 feet with no
significant weather and/or obstructions to visibility.

* = STATION THAT DOES NOT REPORT PRECIPITATION /E.G. RAIN...SNOW...ETC/
    THUNDER OR FOG.

PAZ002>004-007>009-013>016-020>023-029>032-261600-
WESTERN PENNSYLVANIA

CITY           SKY/WX    TMP DP  RH WIND       PRES   REMARKS
ERIE           FAIR      80  61  52 SW8       29.84R
MEADVILLE      FAIR      74  62  66 SW3       29.88S
FRANKLIN*      FAIR      76  62  62 SW6       29.91R
NEW CASTLE     FAIR      79  63  57 VRB5      29.89S
BEAVER COUNTY  SUNNY     79  63  57 SW7       29.90S
BUTLER*        FAIR      80  63  55 VRB6      29.90S
PITTSBURGH INT PTSUNNY   80  60  50 SW9       29.89S
PITTSBURGH     FAIR      79  65  62 VRB6      29.89F
INDIANA*       SUNNY     77  68  73 W6        29.95S
LATROBE        MOSUNNY   79  66  65 SW8       29.91F
WASHINGTON CO* FAIR      79  66  64 SW7       29.93S
$$

PAZ004>006-010>012-017>019-024>028-033>037-041-042-045-046-049>053-261600-
CENTRAL PENNSYLVANIA

CITY           SKY/WX    TMP DP  RH WIND       PRES   REMARKS
BRADFORD       FAIR      76  55  48 VRB7      29.92S
DUBOIS         FAIR      75  60  59 W9        29.91S
CLEARFIELD     FAIR      79  64  60 S8        29.90F
JOHNSTOWN      FAIR      76  61  59 W9        29.95S
ALTOONA        FAIR      81  62  52 W8        29.91F
STATE COLLEGE  SUNNY     79  68  69 S6        29.89F
WILLIAMSPORT   FAIR      79  64  60 W6        29.85F
SELINSGROVE    FAIR      80  70  71 SE6       29.86F
FT INDIANTOWN  FAIR      81  69  66 SW5       29.85F
CAPITAL CITY   FAIR      85  67  54 W8        29.85F
HARRISBURG     FAIR      83  68  60 NW6       29.84F
YORK           FAIR      83  69  62 NW5       29.86F
$$

PAZ038>040-043-044-047-048-054-055-060>062-067>071-261600-
EASTERN PENNSYLVANIA

CITY           SKY/WX    TMP DP  RH WIND       PRES   REMARKS
SCRANTON       FAIR      82  62  50 VRB5      29.86F
MOUNT POCONO   FAIR      78  57  48 W10G17    29.91F
ALLENTOWN      FAIR      81  69  67 CALM      29.85F
QUAKERTOWN*    MOSUNNY   82  70  65 W3        29.86F
READING        FAIR      83  71  67 NW5       29.85S
LANCASTER      FAIR      83  71  67 W5        29.85F
COATESVILLE    FAIR      81  68  65 W7        29.89F
POTTSTOWN      FAIR      81  68  64 NW3       29.87F
BLUE BELL      FAIR      79  70  73 SW3       29.87F
DOYLESTOWN     FAIR      81  69  67 VRB3      29.85F
WILLOW GROVE   NOT AVBL
NORTH PHILA    FAIR      83  69  62 S3        29.86F
PHILADELPHIA   PTSUNNY   79  67  66 SW9       29.86F
$$



USA.gov is the U.S. government's official web portal to all federal, state and local government web resources and services.